小惑星A/2020 M4

A/2020 M4

English version
Home page
Updated on July 18, 2021

---------------------------------------------------------------------

・ プロフィール

発見日 2020年6月17日
発見光度 21.98等
発見者 Pan-STARRS 2 (Haleakala)

・ 軌道要素

Epoch 2021 July 5.0 TT = JDT 2459400.5
T 2020 Nov. 23.93182 TT                                 Rudenko
q   5.9525587            (2000.0)            P               Q
z  +0.0001136      Peri.  104.64606     -0.42733810     -0.90160231
 +/-0.0000060      Node   348.62493     -0.90348116     +0.42314804
e   0.9993235      Incl.  160.12640     -0.03322568     +0.08977196
H   14.5
From 70 observations 2018 Aug. 9-2021 June 12, mean residual 0".3.

・ 光度変化

        H = 14.0  G = 0.15

---------------------------------------------------------------------

軌道要素はM.P.E.C. 2021-N06に掲載されたものです。
光度グラフはComet for Windowsで作成したものです。

---------------------------------------------------------------------

Copyright(C) Seiichi Yoshida (comet@aerith.net). All rights reserved.